Weather History for KHYA - October, 2011

Change the Weather History Date:

Monday, October 31, 2011

  Actual Average Record
Temperature  
Mean Temperature 40 °F -  
Max Temperature 51 °F 56 °F 78 °F (1946)
Min Temperature 28 °F 36 °F 9 °F (1966)
Degree Days  
Heating Degree Days 26    
Moisture  
Dew Point 33 °F    
Average Humidity 74    
Maximum Humidity 93    
Minimum Humidity 48    
Precipitation  
Precipitation 0.00 in - - ()
Sea Level Pressure  
Sea Level Pressure 30.38 in    
Wind  
Wind Speed 3 mph (NW)    
Max Wind Speed 9 mph    
Max Gust Speed -    
Visibility 10 miles    
Events      
Averages and records for this station are not official NWS values.
T = Trace of Precipitation, MM = Missing Value Source: NWS Daily Summary

Daily Weather History Graph

Daily Weather History Graph

Search for Another Location

Airport or City:

Trip Planner

Search our weather history database for the weather conditions in past years. The results will help you decide how hot, cold, wet, or windy it might be!

Date:

Astronomy

Oct. 31, 2011 Rise Set
Actual Time 7:11 AM EDT 5:37 PM EDT
Civil Twilight 6:42 AM EDT 6:06 PM EDT
Nautical Twilight 6:10 AM EDT 6:38 PM EDT
Astronomical Twilight 5:37 AM EDT 7:11 PM EDT
Moon 12:18 PM EDT (10/31) 10:08 PM EDT (10/31)
Length of Visible Light 11h 23m
Length of Day
10h 25m
Waxing Crescent, 29% of the Moon is Illuminated
Oct 31
Waxing Crescent
Nov 2
First Quarter
Nov 10
Full
Nov 18
Last Quarter
Nov 25
New

Hourly Weather History & Observations

Time (EDT) Temp. Windchill Dew Point Humidity Pressure Visibility Wind Dir Wind Speed Gust Speed Precip Events Conditions
12:56 AM 34.0 °F 29.8 °F 27.0 °F 75% 30.31 in 10.0 mi WNW 4.6 mph - N/A   Clear
1:56 AM 37.0 °F - 26.1 °F 65% 30.31 in 10.0 mi Calm Calm - N/A   Clear
2:56 AM 30.0 °F 26.5 °F 26.1 °F 85% 30.32 in 10.0 mi West 3.5 mph - N/A   Clear
3:56 AM 33.1 °F - 27.0 °F 78% 30.33 in 10.0 mi Calm Calm - N/A   Clear
4:56 AM 34.0 °F 29.8 °F 28.9 °F 82% 30.35 in 10.0 mi WNW 4.6 mph - N/A   Clear
5:56 AM 30.0 °F - 26.1 °F 85% 30.36 in 10.0 mi Calm Calm - N/A   Clear
6:56 AM 28.0 °F - 26.1 °F 92% 30.37 in 10.0 mi Calm Calm - N/A   Clear
7:56 AM 30.2 °F - 28.4 °F 93% 30.38 in 10.0 mi Calm Calm - N/A   Clear
8:56 AM 44.1 °F 42.5 °F 37.0 °F 76% 30.40 in 10.0 mi WNW 3.5 mph - N/A   Clear
9:34 AM 48.2 °F - 37.4 °F 66% 30.40 in 1.5 mi NNW 5.8 mph - N/A   Haze
9:41 AM 48.2 °F - 37.4 °F 66% 30.40 in 10.0 mi NNW 5.8 mph - N/A   Clear
9:56 AM 48.0 °F - 37.9 °F 68% 30.40 in 10.0 mi NNW 6.9 mph - N/A   Clear
10:56 AM 50.0 °F - 35.1 °F 57% 30.41 in 10.0 mi NNE 8.1 mph - N/A   Clear
11:56 AM 51.1 °F - 32.0 °F 48% 30.41 in 10.0 mi Calm Calm - N/A   Partly Cloudy
12:56 PM 50.0 °F - 37.0 °F 61% 30.40 in 10.0 mi SSW 9.2 mph - N/A   Clear
1:56 PM 51.1 °F - 36.0 °F 56% 30.39 in 10.0 mi SSE 4.6 mph - N/A   Partly Cloudy
2:56 PM 50.0 °F - 35.1 °F 57% 30.39 in 10.0 mi South 5.8 mph - N/A   Partly Cloudy
3:56 PM 48.9 °F - 34.0 °F 56% 30.37 in 10.0 mi Variable 3.5 mph - N/A   Clear
4:56 PM 48.0 °F - 34.0 °F 58% 30.38 in 10.0 mi Calm Calm - N/A   Clear
5:56 PM 44.1 °F - 35.1 °F 71% 30.40 in 10.0 mi Calm Calm - N/A   Clear
6:56 PM 39.9 °F - 36.0 °F 86% 30.42 in 10.0 mi Calm Calm - N/A   Clear
7:56 PM 37.0 °F - 34.0 °F 89% 30.41 in 10.0 mi Calm Calm - N/A   Clear
8:56 PM 37.0 °F - 34.0 °F 89% 30.41 in 10.0 mi Calm Calm - N/A   Clear
9:56 PM 36.0 °F - 34.0 °F 93% 30.41 in 10.0 mi Calm Calm - N/A   Clear
10:56 PM 35.1 °F - 33.1 °F 92% 30.41 in 10.0 mi Calm Calm - N/A   Clear
11:56 PM 35.1 °F 32.2 °F 33.1 °F 92% 30.38 in 10.0 mi ENE 3.5 mph - N/A   Clear